GW1714 Weather Reports


Display with metric or nautical units.
time (UTC)temp
F
wind
direction
speed
MPH
gust
MPH
rain 1hr
in
rain 24hr
in
rain mn
in
humidity
%
barometer
mb
20260906095124 72 345 2.0 3.0 0.00 0.00 0.00 95 1031.2
20260906094622 74 357 2.0 3.0 0.00 0.00 0.00 93 1031.5
20260906094119 74 350 2.0 2.0 0.00 0.00 0.00 92 1031.4
20260906093615 74 45 0.0 2.0 0.00 0.00 0.00 93 1031.5
20260906093114 74 172 0.0 2.0 0.00 0.00 0.00 93 1031.6
20260906092609 74 98 0.0 1.0 0.00 0.00 0.00 92 1031.5
20260906092105 74 14 1.0 3.0 0.00 0.00 0.00 93 1031.1
20260906091600 74 16 2.0 2.0 0.00 0.00 0.00 93 1031.4
20260906091056 74 0 2.0 3.0 0.00 0.00 0.00 93 1031.5
20260906090551 73 60 1.0 4.0 0.00 0.00 0.00 94 1031.5
20260906090046 73 28 3.0 4.0 0.00 0.00 0.00 96 1031.4
20260906085545 73 0 2.0 4.0 0.00 0.00 0.00 96 1031.4
20260906085044 72 15 2.0 3.0 0.00 0.00 0.00 97 1031.3
20260906084539 72 350 3.0 4.0 0.00 0.00 0.00 97 1031.3
20260906084038 72 345 2.0 3.0 0.00 0.00 0.00 97 1031.4
20260906083534 72 0 2.0 4.0 0.00 0.00 0.00 97 1031.5
20260906083034 73 344 3.0 4.0 0.00 0.00 0.00 96 1031.3
20260906082528 73 357 3.0 4.0 0.00 0.00 0.00 96 1031.7
20260906082024 73 22 2.0 3.0 0.00 0.00 0.00 96 1031.8
20260906081520 73 139 2.0 2.0 0.00 0.00 0.00 96 1031.5
20260906081016 73 165 0.0 0.0 0.00 0.00 0.00 95 1031.3
20260906080512 73 8 0.0 0.0 0.00 0.00 0.00 95 1031.4
20260906080008 73 345 0.0 1.0 0.00 0.00 0.00 95 1031.4
20260906075502 73 331 0.0 1.0 0.00 0.00 0.00 95 1031.5
20260906074956 73 345 0.0 1.0 0.00 0.00 0.00 95 1031.2
20260906074451 73 340 0.0 1.0 0.00 0.00 0.00 95 1031.2
20260906073949 73 172 0.0 0.0 0.00 0.00 0.00 95 1031.3
20260906073444 73 172 0.0 1.0 0.00 0.00 0.00 95 1031.1
20260906072941 73 180 0.0 1.0 0.00 0.00 0.00 94 1031.1
20260906072436 73 23 1.0 2.0 0.00 0.00 0.00 94 1030.9
20260906071932 73 0 0.0 2.0 0.00 0.00 0.00 94 1030.8
20260906071427 73 180 0.0 0.0 0.00 0.00 0.00 94 1030.6
20260906070923 73 180 0.0 0.0 0.00 0.00 0.00 94 1031.0
20260906070419 74 180 0.0 0.0 0.00 0.00 0.00 93 1031.2
20260906065914 74 0 0.0 0.0 0.00 0.00 0.00 93 1031.0
20260906065409 74 0 0.0 1.0 0.00 0.00 0.00 93 1031.1
20260906064904 74 349 2.0 2.0 0.00 0.00 0.00 92 1030.9
20260906064400 74 0 0.0 0.0 0.00 0.00 0.00 92 1031.0
20260906063854 74 352 0.0 1.0 0.00 0.00 0.00 92 1031.0
20260906063350 75 6 0.0 1.0 0.00 0.00 0.00 92 1031.1
20260906062845 75 350 2.0 2.0 0.00 0.00 0.00 91 1031.1
20260906062344 75 352 0.0 0.0 0.00 0.00 0.00 91 1031.2
20260906061840 74 353 0.0 1.0 0.00 0.00 0.00 92 1031.0
20260906061336 74 352 0.0 1.0 0.00 0.00 0.00 93 1031.1
20260906060831 74 356 2.0 2.0 0.00 0.00 0.00 92 1031.1
20260906060329 75 14 0.0 1.0 0.00 0.00 0.00 91 1031.2
20260906055824 75 344 0.0 2.0 0.00 0.00 0.00 91 1031.1
20260906055320 76 180 0.0 0.0 0.00 0.00 0.00 90 1031.1
20260906054815 76 166 0.0 0.0 0.00 0.00 0.00 88 1031.4
20260906054310 75 166 0.0 0.0 0.00 0.00 0.00 89 1031.3
20260906053806 75 166 0.0 0.0 0.00 0.00 0.00 90 1031.6
20260906053302 75 166 0.0 0.0 0.00 0.00 0.00 91 1031.5
20260906052756 75 166 0.0 0.0 0.00 0.00 0.00 92 1031.6
20260906052253 75 352 0.0 0.0 0.00 0.00 0.00 92 1031.6
20260906051750 75 352 0.0 1.0 0.00 0.00 0.00 92 1031.7
20260906051249 75 352 0.0 1.0 0.00 0.00 0.00 92 1031.9
20260906050745 75 342 2.0 2.0 0.00 0.00 0.00 92 1031.8
20260906050240 75 29 1.0 6.0 0.00 0.00 0.00 91 1031.9
20260906045738 75 26 5.0 5.0 0.00 0.00 0.00 92 1031.8
20260906045233 75 21 2.0 3.0 0.00 0.00 0.00 91 1031.8
20260906044728 75 0 2.0 3.0 0.00 0.00 0.00 88 1032.2
20260906044223 77 26 1.0 1.0 0.00 0.00 0.00 88 1032.2
20260906043720 77 98 0.0 0.0 0.00 0.00 0.00 88 1032.4
20260906043215 77 151 0.0 2.0 0.00 0.00 0.00 88 1032.2
20260906042715 76 151 0.0 0.0 0.00 0.00 0.00 86 1032.1
20260906042209 77 81 0.0 0.0 0.00 0.00 0.00 84 1032.2
20260906041704 77 12 0.0 0.0 0.00 0.00 0.00 83 1032.1
20260906041159 77 352 0.0 0.0 0.00 0.00 0.00 84 1032.2
20260906040655 77 0 1.0 2.0 0.00 0.00 0.00 84 1032.1
20260906040150 77 331 1.0 1.0 0.00 0.00 0.00 83 1032.2
20260906035645 78 8 0.0 2.0 0.00 0.00 0.00 82 1032.1
20260906035141 78 345 1.0 2.0 0.00 0.00 0.00 81 1031.8
20260906034635 78 354 1.0 2.0 0.00 0.00 0.00 81 1031.9
20260906034130 79 350 2.0 2.0 0.00 0.00 0.00 78 1031.8
20260906033625 79 353 0.0 0.0 0.00 0.00 0.00 77 1031.9
20260906033120 79 353 0.0 0.0 0.00 0.00 0.00 76 1032.1
20260906032617 79 353 0.0 0.0 0.00 0.00 0.00 76 1032.1
20260906032116 79 353 0.0 0.0 0.00 0.00 0.00 76 1031.9
20260906031612 80 353 0.0 0.0 0.00 0.00 0.00 76 1031.7
20260906031108 80 352 0.0 0.0 0.00 0.00 0.00 77 1031.9
20260906030607 80 340 0.0 2.0 0.00 0.00 0.00 77 1031.9
20260906025602 80 352 1.0 2.0 0.00 0.00 0.00 77 1032.1
20260906025100 80 345 2.0 2.0 0.00 0.00 0.00 79 1031.7
20260906024555 79 352 0.0 2.0 0.00 0.00 0.00 80 1031.7
20260906024049 80 342 0.0 1.0 0.00 0.00 0.00 81 1031.7
20260906023546 80 355 2.0 2.0 0.00 0.00 0.00 82 1031.5
20260906023040 80 145 0.0 0.0 0.00 0.00 0.00 82 1031.5
20260906022535 80 353 0.0 1.0 0.00 0.00 0.00 81 1031.4
20260906022031 80 353 1.0 1.0 0.00 0.00 0.00 81 1031.3
20260906021526 80 343 2.0 3.0 0.00 0.00 0.00 82 1031.6
20260906021020 80 337 1.0 4.0 0.00 0.00 0.00 82 1031.6
20260906020519 79 5 2.0 3.0 0.00 0.00 0.00 84 1031.7
20260906020019 79 352 3.0 4.0 0.00 0.00 0.00 86 1031.6
20260906015518 79 291 1.0 3.0 0.00 0.00 0.00 84 1031.7
20260906015018 80 337 2.0 3.0 0.00 0.00 0.00 82 1031.6
20260906014513 80 348 2.0 3.0 0.00 0.00 0.00 83 1031.6
20260906014009 79 0 2.0 3.0 0.00 0.00 0.00 84 1031.6
20260906013504 79 356 2.0 3.0 0.00 0.00 0.00 87 1031.6
20260906013000 79 353 0.0 1.0 0.00 0.00 0.00 88 1031.7
20260906012454 78 0 0.0 1.0 0.00 0.00 0.00 89 1031.8
20260906011954 78 0 0.0 0.0 0.00 0.00 0.00 89 1031.6
20260906011449 78 3 2.0 3.0 0.00 0.00 0.00 89 1031.6
20260906010944 78 5 2.0 3.0 0.00 0.00 0.00 89 1031.5
20260906010440 78 15 0.0 0.0 0.00 0.00 0.00 87 1031.4
20260906005936 78 15 0.0 0.0 0.00 0.00 0.00 87 1031.3
20260906005436 79 20 0.0 2.0 0.00 0.00 0.00 86 1031.1
20260906004934 79 8 0.0 2.0 0.00 0.00 0.00 84 1031.3
20260906004428 79 157 1.0 1.0 0.00 0.00 0.00 83 1031.2
20260906003925 79 98 1.0 4.0 0.00 0.00 0.00 83 1031.3
20260906003419 79 45 2.0 5.0 0.00 0.00 0.00 86 1031.3
20260906002915 79 26 2.0 2.0 0.00 0.00 0.00 87 1031.4
20260906002414 79 18 2.0 4.0 0.00 0.00 0.00 87 1031.3
20260906001909 79 63 1.0 3.0 0.00 0.00 0.00 87 1031.2
20260906001405 80 39 3.0 4.0 0.00 0.00 0.00 87 1031.3
20260906000905 80 60 1.0 3.0 0.00 0.00 0.00 87 1031.1
20260906000403 80 120 0.0 2.0 0.00 0.00 0.00 88 1031.2
20260905235855 80 114 0.0 3.0 0.00 0.00 0.00 88 1031.4
20260905235349 80 354 0.0 2.0 0.00 0.00 0.00 88 1031.2
20260905234845 80 24 2.0 3.0 0.00 0.00 0.00 88 1031.1
20260905234340 80 19 3.0 7.0 0.00 0.00 0.00 86 1031.3
20260905233835 81 352 2.0 8.0 0.00 0.00 0.00 86 1031.2
20260905233330 82 45 3.0 3.0 0.00 0.00 0.00 86 1031.2
20260905232829 82 21 2.0 2.0 0.00 0.00 0.00 86 1031.0
20260905232325 83 90 0.0 0.0 0.00 0.00 0.00 85 1031.2
20260905231821 84 0 0.0 2.0 0.00 0.00 0.00 84 1031.1
20260905231316 84 162 2.0 2.0 0.00 0.00 0.00 83 1030.9
20260905230812 85 162 2.0 2.0 0.00 0.00 0.00 82 1030.7
20260905230310 86 166 0.0 0.0 0.00 0.00 0.00 81 1031.0
20260905225809 87 114 0.0 0.0 0.00 0.00 0.00 79 1031.1
20260905225306 88 160 4.0 4.0 0.00 0.00 0.00 77 1031.1
20260905224804 88 160 0.0 2.0 0.00 0.00 0.00 77 1030.9
20260905224300 87 22 2.0 3.0 0.00 0.00 0.00 76 1031.0
20260905223755 88 14 2.0 3.0 0.00 0.00 0.00 75 1031.0
20260905223252 88 28 2.0 3.0 0.00 0.00 0.00 74 1030.5
20260905222748 90 352 2.0 2.0 0.00 0.00 0.00 72 1030.8
20260905222246 88 336 0.0 5.0 0.00 0.00 0.00 73 1030.7
20260905221742 90 6 3.0 4.0 0.00 0.00 0.00 70 1030.5
20260905221239 90 14 1.0 3.0 0.00 0.00 0.00 66 1030.9
20260905220735 90 18 3.0 5.0 0.00 0.00 0.00 67 1030.8
20260905220231 90 34 3.0 3.0 0.00 0.00 0.00 66 1030.9
20260905215730 90 354 0.0 2.0 0.00 0.00 0.00 67 1031.0
20260905215226 90 0 1.0 2.0 0.00 0.00 0.00 68 1031.2
20260905214721 90 12 2.0 4.0 0.00 0.00 0.00 68 1031.0
20260905214217 90 350 2.0 2.0 0.00 0.00 0.00 68 1031.1
20260905213712 89 24 2.0 4.0 0.00 0.00 0.00 70 1031.2
20260905213208 89 341 2.0 3.0 0.00 0.00 0.00 69 1031.2
20260905212703 89 352 5.0 5.0 0.00 0.00 0.00 70 1031.3
20260905212202 90 357 3.0 4.0 0.00 0.00 0.00 69 1031.3
20260905211657 90 0 5.0 5.0 0.00 0.00 0.00 68 1031.0
20260905211152 91 338 2.0 3.0 0.00 0.00 0.00 68 1031.2
20260905210649 90 339 2.0 4.0 0.00 0.00 0.00 67 1031.3
20260905210149 91 340 0.0 2.0 0.00 0.00 0.00 66 1031.5
20260905205648 92 339 2.0 2.0 0.00 0.00 0.00 65 1031.6
20260905205147 92 348 2.0 4.0 0.00 0.00 0.00 64 1031.4
20260905204646 93 353 0.0 2.0 0.00 0.00 0.00 63 1031.7
20260905204142 92 194 0.0 2.0 0.00 0.00 0.00 65 1031.1
20260905203637 92 18 2.0 3.0 0.00 0.00 0.00 64 1031.4
20260905203132 95 8 0.0 2.0 0.00 0.00 0.00 61 1031.6
20260905202628 93 355 0.0 2.0 0.00 0.00 0.00 64 1031.8
20260905202123 92 71 2.0 2.0 0.00 0.00 0.00 63 1031.7
20260905201619 91 203 0.0 1.0 0.00 0.00 0.00 66 1031.7
20260905201118 91 354 1.0 3.0 0.00 0.00 0.00 67 1031.8
20260905200614 91 349 2.0 2.0 0.00 0.00 0.00 67 1031.8
20260905200108 89 0 2.0 3.0 0.00 0.00 0.00 70 1031.9
20260905195602 89 319 2.0 3.0 0.00 0.00 0.00 72 1031.9
20260905195057 87 348 1.0 3.0 0.00 0.00 0.00 74 1032.1
20260905194557 87 337 1.0 4.0 0.00 0.00 0.00 75 1032.1
20260905194056 85 17 2.0 5.0 0.00 0.00 0.00 81 1032.2
20260905193551 83 5 2.0 4.0 0.00 0.00 0.00 85 1032.2
20260905193046 83 0 3.0 4.0 0.00 0.00 0.00 85 1032.2
20260905192542 82 19 2.0 4.0 0.00 0.00 0.00 85 1032.3
20260905192038 82 4 2.0 4.0 0.00 0.00 0.00 84 1032.3
20260905191536 83 345 3.0 3.0 0.00 0.00 0.00 84 1032.9
20260905191036 82 98 0.0 1.0 0.00 0.00 0.00 84 1032.7
20260905190533 82 151 0.0 0.0 0.00 0.00 0.00 85 1032.8
20260905190028 82 180 0.0 1.0 0.00 0.00 0.00 84 1033.0
20260905185527 82 114 0.0 0.0 0.00 0.00 0.00 83 1033.1
20260905185026 82 0 0.0 2.0 0.00 0.00 0.00 84 1033.2
20260905184521 82 180 0.0 0.0 0.00 0.00 0.00 83 1032.8
20260905184019 82 180 1.0 2.0 0.00 0.00 0.00 82 1032.5
20260905183514 82 180 0.0 2.0 0.00 0.00 0.00 82 1032.7
20260905183009 83 187 1.0 1.0 0.00 0.00 0.00 81 1032.6
20260905182508 83 172 0.0 0.0 0.00 0.00 0.00 81 1032.7
20260905182004 83 195 0.0 2.0 0.00 0.00 0.00 81 1033.0
20260905181459 83 174 1.0 3.0 0.00 0.00 0.00 78 1032.8
20260905180957 84 180 0.0 1.0 0.00 0.00 0.00 77 1032.7
20260905180452 84 180 1.0 3.0 0.00 0.00 0.00 76 1032.9
20260905175948 85 180 2.0 3.0 0.00 0.00 0.00 74 1033.2
20260905175447 86 188 1.0 2.0 0.00 0.00 0.00 72 1033.2
20260905174943 87 183 3.0 3.0 0.00 0.00 0.00 70 1033.1
20260905174438 87 184 2.0 5.0 0.00 0.00 0.00 69 1033.1
20260905173933 89 182 3.0 4.0 0.00 0.00 0.00 67 1033.1
20260905173430 91 178 3.0 4.0 0.00 0.00 0.00 65 1033.6
20260905172925 90 165 2.0 4.0 0.00 0.00 0.00 64 1033.5
20260905172422 91 190 2.0 3.0 0.00 0.00 0.00 65 1033.4
20260905171919 90 164 2.0 3.0 0.00 0.00 0.00 66 1033.2
20260905171415 89 187 1.0 2.0 0.00 0.00 0.00 65 1033.0
20260905170911 90 177 2.0 3.0 0.00 0.00 0.00 64 1033.5
20260905170407 89 180 1.0 2.0 0.00 0.00 0.00 65 1033.4
20260905165906 89 173 3.0 4.0 0.00 0.00 0.00 65 1033.4
20260905165401 89 175 0.0 2.0 0.00 0.00 0.00 64 1033.5
20260905164856 89 175 0.0 3.0 0.00 0.00 0.00 67 1033.6
20260905164351 89 186 1.0 2.0 0.00 0.00 0.00 67 1033.9
20260905163846 89 195 0.0 0.0 0.00 0.00 0.00 68 1033.8
20260905163343 88 173 0.0 0.0 0.00 0.00 0.00 69 1033.6
20260905162839 88 352 1.0 3.0 0.00 0.00 0.00 68 1033.7
20260905162338 88 353 0.0 1.0 0.00 0.00 0.00 70 1033.7
20260905161833 87 195 0.0 1.0 0.00 0.00 0.00 73 1034.2
20260905161332 87 180 0.0 1.0 0.00 0.00 0.00 73 1033.9
20260905160830 87 103 0.0 0.0 0.00 0.00 0.00 72 1034.0
20260905160325 87 165 0.0 0.0 0.00 0.00 0.00 72 1033.9
20260905155819 87 180 0.0 2.0 0.00 0.00 0.00 72 1034.0
20260905155313 86 120 1.0 3.0 0.00 0.00 0.00 72 1033.9
20260905154807 85 180 0.0 1.0 0.00 0.00 0.00 74 1033.9
20260905154303 86 195 0.0 0.0 0.00 0.00 0.00 76 1034.0
20260905153758 85 195 0.0 1.0 0.00 0.00 0.00 76 1033.9
20260905153254 84 168 0.0 1.0 0.00 0.00 0.00 77 1033.8
20260905152748 84 23 0.0 0.0 0.00 0.00 0.00 78 1033.8
20260905152243 84 180 0.0 2.0 0.00 0.00 0.00 79 1033.8
20260905151742 84 180 0.0 0.0 0.00 0.00 0.00 79 1034.0
20260905151239 85 8 0.0 3.0 0.00 0.00 0.00 78 1033.9
20260905150738 84 0 0.0 3.0 0.00 0.00 0.00 78 1034.0
20260905150238 84 172 0.0 0.0 0.00 0.00 0.00 79 1034.0
20260905145735 83 180 0.0 0.0 0.00 0.00 0.00 80 1034.2
20260905145231 83 180 0.0 0.0 0.00 0.00 0.00 80 1034.0
20260905144729 83 157 0.0 1.0 0.00 0.00 0.00 80 1034.0
20260905144225 82 66 0.0 2.0 0.00 0.00 0.00 81 1034.5
20260905143724 82 353 0.0 0.0 0.00 0.00 0.00 83 1033.9
20260905143223 81 157 0.0 1.0 0.00 0.00 0.00 84 1034.3
20260905142722 81 180 0.0 2.0 0.00 0.00 0.00 84 1033.9
20260905142216 81 180 0.0 2.0 0.00 0.00 0.00 84 1034.2
20260905141712 81 157 1.0 1.0 0.00 0.00 0.00 84 1034.2
20260905141209 81 131 0.0 0.0 0.00 0.00 0.00 84 1034.2
20260905140703 81 131 0.0 0.0 0.00 0.00 0.00 84 1034.3
20260905140157 81 131 0.0 0.0 0.00 0.00 0.00 84 1034.2
20260905135651 80 131 0.0 0.0 0.00 0.00 0.00 84 1034.2
20260905135142 80 52 2.0 3.0 0.00 0.00 0.00 84 1034.5
20260905134641 80 29 3.0 5.0 0.00 0.00 0.00 84 1034.3
20260905134140 80 33 2.0 2.0 0.00 0.00 0.00 85 1034.3
20260905133636 80 0 0.0 1.0 0.00 0.00 0.00 86 1034.4
20260905133136 79 21 2.0 2.0 0.00 0.00 0.00 86 1034.5
20260905132635 78 354 1.0 2.0 0.00 0.00 0.00 88 1034.4
20260905132130 77 57 0.0 2.0 0.00 0.00 0.00 89 1034.5
20260905131626 77 172 0.0 1.0 0.00 0.00 0.00 89 1034.5
20260905131120 76 180 0.0 0.0 0.00 0.00 0.00 90 1034.7
20260905130615 76 180 0.0 0.0 0.00 0.00 0.00 90 1034.7
20260905130115 76 180 0.0 0.0 0.00 0.00 0.00 90 1034.4
20260905125609 76 180 0.0 0.0 0.00 0.00 0.00 90 1034.8
20260905125105 76 15 0.0 1.0 0.00 0.00 0.00 90 1034.4
20260905124601 75 0 0.0 1.0 0.00 0.00 0.00 91 1034.4
20260905124057 75 355 1.0 2.0 0.00 0.00 0.00 92 1034.5
20260905123551 75 0 1.0 2.0 0.00 0.00 0.00 92 1034.5
20260905123048 74 15 0.0 1.0 0.00 0.00 0.00 93 1034.6
20260905122543 74 353 1.0 2.0 0.00 0.00 0.00 92 1034.4
20260905122038 75 0 0.0 0.0 0.00 0.00 0.00 93 1034.5
20260905121538 75 0 0.0 1.0 0.00 0.00 0.00 93 1034.6
20260905121033 74 15 0.0 0.0 0.00 0.00 0.00 94 1034.5
20260905120526 74 0 0.0 1.0 0.00 0.00 0.00 94 1034.5
20260905120022 73 0 1.0 2.0 0.00 0.00 0.00 94 1034.4
20260905115521 73 6 1.0 2.0 0.00 0.00 0.00 95 1034.2
20260905115016 73 7 1.0 1.0 0.00 0.00 0.00 95 1033.7
20260905114515 73 6 1.0 2.0 0.00 0.00 0.00 94 1033.9
20260905114014 73 348 0.0 2.0 0.00 0.00 0.00 94 1033.8
20260905113510 73 8 0.0 1.0 0.00 0.00 0.00 93 1033.7
20260905113005 73 0 0.0 0.0 0.00 0.00 0.00 94 1033.6
20260905112500 73 0 0.0 0.0 0.00 0.00 0.00 94 1033.7
20260905111955 73 0 0.0 1.0 0.00 0.00 0.00 94 1033.8
20260905111449 74 7 1.0 2.0 0.00 0.00 0.00 93 1033.6
20260905110943 74 99 0.0 0.0 0.00 0.00 0.00 93 1033.5
20260905110443 73 0 0.0 0.0 0.00 0.00 0.00 93 1033.4
20260905105937 73 0 1.0 2.0 0.00 0.00 0.00 93 1033.4
20260905105432 73 0 2.0 3.0 0.00 0.00 0.00 93 1033.4
20260905104931 74 0 2.0 3.0 0.00 0.00 0.00 92 1033.3
20260905104427 75 15 2.0 3.0 0.00 0.00 0.00 90 1033.3
20260905103922 75 337 0.0 2.0 0.00 0.00 0.00 89 1033.1
20260905103418 75 172 0.0 0.0 0.00 0.00 0.00 90 1033.2
20260905102913 75 157 0.0 0.0 0.00 0.00 0.00 89 1033.0
20260905102409 76 7 0.0 0.0 0.00 0.00 0.00 87 1032.9
20260905101904 76 7 0.0 0.0 0.00 0.00 0.00 86 1033.0
20260905101402 76 7 0.0 0.0 0.00 0.00 0.00 87 1032.5
20260905100857 76 7 0.0 0.0 0.00 0.00 0.00 87 1032.8
20260905100353 76 0 0.0 0.0 0.00 0.00 0.00 87 1032.8
20260905095852 76 0 0.0 0.0 0.00 0.00 0.00 87 1032.5
20260905095347 76 0 0.0 0.0 0.00 0.00 0.00 86 1032.6